Find Starlink 34515

NORAD ID: 64712 Int'l Des: 2025-142 Owner: SPXS Country: US Constellation: starlink operational
LEOCIRCULAR

当前视图

正在加载3D地球...

关于 Starlink 34515

正在加载描述...

即将过境

Passes for default location (London). Set your location on the main map for personalized predictions.

高度历史

Loading altitude history...

两行轨道根数

1 64712U 25142S 26158.54406051 .00003020 00000-0 26074-3 0 9998
2 64712 70.0012 87.7336 0002855 268.7741 91.3091 14.98333715 52926
Epoch: Jun 7, 2026 • Age: 14 hours

当前状态

高度 581.5 km
速度 7.57 km/s
星下点 -29.78°S, 20.52°W
发射日期 Jun 28, 2025
运行时间 0.9 years
类型 internet

技术详情

分类 Payload
质量 575.00 kg
干质量 530.00 kg
总质量 575.00 kg
长度 0.30 m
直径 4.10 m
跨度 29.00 m
形状 Box + pan
制造商 SPXS
平台类型 Starlink V2MO
阶段状态 In Orbit
所有者/国家 SPXS/US

Most Searched